Time,TemperatureF,DewpointF,PressureIn,WindDirection,WindDirectionDegrees,WindSpeedMPH,WindSpeedGustMPH,Humidity,HourlyPrecipIn,Conditions,Clouds,dailyrainin,SoftwareType,DateUTC
2013-06-18 00:00:00,85.1,24.7,29.56,North,10,3.0,3.0,11,0.00,,,0.00,Wunderground v.1.15,2013-06-18 07:00:00,
2013-06-18 00:05:00,85.0,24.6,29.56,WNW,290,3.0,3.0,11,0.00,,,0.00,Wunderground v.1.15,2013-06-18 07:05:00,
2013-06-18 00:10:00,84.8,24.4,29.56,ENE,72,2.0,2.0,11,0.00,,,0.00,Wunderground v.1.15,2013-06-18 07:10:00,
2013-06-18 00:20:00,82.9,25.1,29.56,NE,43,3.0,4.0,12,0.00,,,0.00,Wunderground v.1.15,2013-06-18 07:20:00,
2013-06-18 00:25:00,82.3,26.5,29.56,NE,46,3.0,4.0,13,0.00,,,0.00,Wunderground v.1.15,2013-06-18 07:25:00,
2013-06-18 00:30:00,81.8,26.1,29.56,NE,34,2.0,4.0,13,0.00,,,0.00,Wunderground v.1.15,2013-06-18 07:30:00,
2013-06-18 00:40:00,82.3,24.6,29.56,NW,326,2.0,2.0,12,0.00,,,0.00,Wunderground v.1.15,2013-06-18 07:40:00,
2013-06-18 00:50:00,82.8,25.0,29.56,NW,307,1.0,2.0,12,0.00,,,0.00,Wunderground v.1.15,2013-06-18 07:50:00,
2013-06-18 00:55:00,82.9,25.1,29.56,NW,307,1.0,2.0,12,0.00,,,0.00,Wunderground v.1.15,2013-06-18 07:55:00,
2013-06-18 01:00:00,83.0,25.1,29.56,WNW,292,2.0,5.0,12,0.00,,,0.00,Wunderground v.1.15,2013-06-18 08:00:00,
2013-06-18 01:35:00,81.8,24.2,29.56,NNW,341,2.0,3.0,12,0.00,,,0.00,Wunderground v.1.15,2013-06-18 08:35:00,
2013-06-18 01:40:00,82.0,24.4,29.56,NNW,335,3.0,3.0,12,0.00,,,0.00,Wunderground v.1.15,2013-06-18 08:40:00,
2013-06-18 01:45:00,82.4,24.7,29.56,NW,309,3.0,3.0,12,0.00,,,0.00,Wunderground v.1.15,2013-06-18 08:45:00,
2013-06-18 01:50:00,82.4,24.7,29.56,NW,323,3.0,4.0,12,0.00,,,0.00,Wunderground v.1.15,2013-06-18 08:50:00,
2013-06-18 02:00:00,82.0,24.4,29.56,NW,323,4.0,5.0,12,0.00,,,0.00,Wunderground v.1.15,2013-06-18 09:00:00,
2013-06-18 02:05:00,80.9,25.4,29.56,North,5,3.0,5.0,13,0.00,,,0.00,Wunderground v.1.15,2013-06-18 09:05:00,
2013-06-18 02:10:00,80.4,25.0,29.56,NNW,340,1.0,1.0,13,0.00,,,0.00,Wunderground v.1.15,2013-06-18 09:10:00,
2013-06-18 02:15:00,79.9,24.6,29.56,NNW,335,1.0,2.0,13,0.00,,,0.00,Wunderground v.1.15,2013-06-18 09:15:00,
2013-06-18 02:20:00,79.9,24.6,29.56,NW,318,1.0,1.0,13,0.00,,,0.00,Wunderground v.1.15,2013-06-18 09:20:00,
2013-06-18 02:30:00,80.0,24.7,29.56,NNW,329,1.0,3.0,13,0.00,,,0.00,Wunderground v.1.15,2013-06-18 09:30:00,
2013-06-18 02:35:00,79.9,24.6,29.56,NW,320,2.0,3.0,13,0.00,,,0.00,Wunderground v.1.15,2013-06-18 09:35:00,
2013-06-18 02:45:00,80.7,25.3,29.56,West,280,2.0,3.0,13,0.00,,,0.00,Wunderground v.1.15,2013-06-18 09:45:00,
2013-06-18 02:50:00,79.9,24.6,29.56,NW,309,2.0,2.0,13,0.00,,,0.00,Wunderground v.1.15,2013-06-18 09:50:00,
2013-06-18 03:00:00,79.2,25.9,29.56,NW,316,1.0,1.0,14,0.00,,,0.00,Wunderground v.1.15,2013-06-18 10:00:00,
2013-06-18 03:05:00,79.6,26.2,29.57,NW,316,0.0,1.0,14,0.00,,,0.00,Wunderground v.1.15,2013-06-18 10:05:00,
2013-06-18 03:10:00,78.9,25.6,29.56,NNW,330,1.0,2.0,14,0.00,,,0.00,Wunderground v.1.15,2013-06-18 10:10:00,
2013-06-18 03:15:00,78.9,25.6,29.57,NW,323,2.0,2.0,14,0.00,,,0.00,Wunderground v.1.15,2013-06-18 10:15:00,
2013-06-18 03:20:00,79.0,25.7,29.57,NNW,329,2.0,4.0,14,0.00,,,0.00,Wunderground v.1.15,2013-06-18 10:20:00,
2013-06-18 03:30:00,78.5,25.3,29.56,NW,326,3.0,5.0,14,0.00,,,0.00,Wunderground v.1.15,2013-06-18 10:30:00,
2013-06-18 03:35:00,78.8,25.5,29.56,NW,306,4.0,5.0,14,0.00,,,0.00,Wunderground v.1.15,2013-06-18 10:35:00,
2013-06-18 03:40:00,78.5,25.3,29.56,NW,306,3.0,3.0,14,0.00,,,0.00,Wunderground v.1.15,2013-06-18 10:40:00,
2013-06-18 03:50:00,79.2,25.9,29.56,WNW,301,4.0,4.0,14,0.00,,,0.00,Wunderground v.1.15,2013-06-18 10:50:00,
2013-06-18 04:00:00,79.2,24.1,29.56,NW,304,4.0,4.0,13,0.00,,,0.00,Wunderground v.1.15,2013-06-18 11:00:00,
2013-06-18 04:05:00,79.0,23.9,29.57,NW,304,4.0,5.0,13,0.00,,,0.00,Wunderground v.1.15,2013-06-18 11:05:00,
2013-06-18 04:10:00,79.2,24.1,29.57,WNW,300,5.0,5.0,13,0.00,,,0.00,Wunderground v.1.15,2013-06-18 11:10:00,
2013-06-18 04:20:00,79.3,24.2,29.57,NW,311,5.0,5.0,13,0.00,,,0.00,Wunderground v.1.15,2013-06-18 11:20:00,
2013-06-18 04:25:00,79.1,24.0,29.57,NW,306,5.0,5.0,13,0.00,,,0.00,Wunderground v.1.15,2013-06-18 11:25:00,
2013-06-18 04:30:00,79.2,24.1,29.57,NW,323,4.0,5.0,13,0.00,,,0.00,Wunderground v.1.15,2013-06-18 11:30:00,
2013-06-18 04:35:00,78.8,23.8,29.57,NW,306,4.0,5.0,13,0.00,,,0.00,Wunderground v.1.15,2013-06-18 11:35:00,
2013-06-18 04:40:00,79.0,23.9,29.58,WNW,287,4.0,4.0,13,0.00,,,0.00,Wunderground v.1.15,2013-06-18 11:40:00,
2013-06-18 04:45:00,79.4,24.2,29.58,NW,304,5.0,5.0,13,0.00,,,0.00,Wunderground v.1.15,2013-06-18 11:45:00,
2013-06-18 04:55:00,78.2,23.3,29.58,NW,304,5.0,5.0,13,0.00,,,0.00,Wunderground v.1.15,2013-06-18 11:55:00,
2013-06-18 05:05:00,78.2,23.3,29.58,NW,304,4.0,5.0,13,0.00,,,0.00,Wunderground v.1.15,2013-06-18 12:05:00,
2013-06-18 05:10:00,79.4,24.2,29.58,NW,304,3.0,3.0,13,0.00,,,0.00,Wunderground v.1.15,2013-06-18 12:10:00,
2013-06-18 05:20:00,78.7,23.7,29.58,NNW,330,3.0,3.0,13,0.00,,,0.00,Wunderground v.1.15,2013-06-18 12:20:00,
2013-06-18 05:25:00,78.6,23.6,29.58,NNW,333,2.0,3.0,13,0.00,,,0.00,Wunderground v.1.15,2013-06-18 12:25:00,
2013-06-18 05:30:00,78.4,23.5,29.58,NNW,327,2.0,2.0,13,0.00,,,0.00,Wunderground v.1.15,2013-06-18 12:30:00,
2013-06-18 05:35:00,78.6,23.6,29.58,NW,326,1.0,2.0,13,0.00,,,0.00,Wunderground v.1.15,2013-06-18 12:35:00,
2013-06-18 05:40:00,79.1,24.0,29.58,NW,326,1.0,1.0,13,0.00,,,0.00,Wunderground v.1.15,2013-06-18 12:40:00,
2013-06-18 05:50:00,79.7,24.5,29.58,NW,323,2.0,2.0,13,0.00,,,0.00,Wunderground v.1.15,2013-06-18 12:50:00,
2013-06-18 05:55:00,80.1,22.9,29.58,North,353,2.0,4.0,12,0.00,,,0.00,Wunderground v.1.15,2013-06-18 12:55:00,
2013-06-18 06:00:00,80.7,23.3,29.58,NW,326,3.0,3.0,12,0.00,,,0.00,Wunderground v.1.15,2013-06-18 13:00:00,
2013-06-18 06:10:00,81.6,24.0,29.58,NNW,343,3.0,3.0,12,0.00,,,0.00,Wunderground v.1.15,2013-06-18 13:10:00,
2013-06-18 06:15:00,82.2,24.5,29.58,NNW,344,3.0,3.0,12,0.00,,,0.00,Wunderground v.1.15,2013-06-18 13:15:00,
2013-06-18 06:20:00,82.6,24.8,29.59,NNW,346,2.0,3.0,12,0.00,,,0.00,Wunderground v.1.15,2013-06-18 13:20:00,
2013-06-18 06:25:00,83.2,25.3,29.59,North,349,2.0,4.0,12,0.00,,,0.00,Wunderground v.1.15,2013-06-18 13:25:00,
2013-06-18 06:30:00,83.5,23.4,29.59,NNW,341,3.0,3.0,11,0.00,,,0.00,Wunderground v.1.15,2013-06-18 13:30:00,
2013-06-18 06:40:00,84.8,24.4,29.59,NNW,346,1.0,2.0,11,0.00,,,0.00,Wunderground v.1.15,2013-06-18 13:40:00,
2013-06-18 06:45:00,85.6,25.0,29.59,SSE,159,1.0,2.0,11,0.00,,,0.00,Wunderground v.1.15,2013-06-18 13:45:00,
2013-06-18 06:55:00,84.7,26.4,29.59,SW,226,3.0,4.0,12,0.00,,,0.00,Wunderground v.1.15,2013-06-18 13:55:00,
2013-06-18 07:00:00,84.7,26.4,29.59,SSW,203,3.0,3.0,12,0.00,,,0.00,Wunderground v.1.15,2013-06-18 14:00:00,
2013-06-18 07:10:00,84.9,26.6,29.60,SW,224,2.0,2.0,12,0.00,,,0.00,Wunderground v.1.15,2013-06-18 14:10:00,
2013-06-18 07:15:00,85.3,28.9,29.60,SSE,155,2.0,3.0,13,0.00,,,0.00,Wunderground v.1.15,2013-06-18 14:15:00,
2013-06-18 07:20:00,85.5,29.0,29.60,South,173,2.0,2.0,13,0.00,,,0.00,Wunderground v.1.15,2013-06-18 14:20:00,
2013-06-18 07:25:00,85.5,27.1,29.60,SW,228,2.0,2.0,12,0.00,,,0.00,Wunderground v.1.15,2013-06-18 14:25:00,
2013-06-18 07:30:00,85.7,27.2,29.60,ENE,75,1.0,1.0,12,0.00,,,0.00,Wunderground v.1.15,2013-06-18 14:30:00,
2013-06-18 07:35:00,86.2,27.6,29.60,SSE,160,1.0,1.0,12,0.00,,,0.00,Wunderground v.1.15,2013-06-18 14:35:00,
2013-06-18 07:45:00,87.2,26.3,29.59,SSE,153,2.0,3.0,11,0.00,,,0.00,Wunderground v.1.15,2013-06-18 14:45:00,
2013-06-18 07:50:00,87.5,26.5,29.60,SSE,151,2.0,2.0,11,0.00,,,0.00,Wunderground v.1.15,2013-06-18 14:50:00,
2013-06-18 07:55:00,87.9,26.8,29.60,South,181,2.0,2.0,11,0.00,,,0.00,Wunderground v.1.15,2013-06-18 14:55:00,
2013-06-18 08:00:00,88.6,25.0,29.60,SSE,160,2.0,3.0,10,0.00,,,0.00,Wunderground v.1.15,2013-06-18 15:00:00,
2013-06-18 08:05:00,88.5,25.0,29.60,SSE,160,3.0,4.0,10,0.00,,,0.00,Wunderground v.1.15,2013-06-18 15:05:00,
2013-06-18 08:15:00,88.8,25.2,29.60,SE,141,3.0,3.0,10,0.00,,,0.00,Wunderground v.1.15,2013-06-18 15:15:00,
2013-06-18 08:20:00,88.9,25.3,29.60,SE,141,3.0,3.0,10,0.00,,,0.00,Wunderground v.1.15,2013-06-18 15:20:00,
2013-06-18 08:25:00,89.4,25.7,29.60,SW,219,3.0,3.0,10,0.00,,,0.00,Wunderground v.1.15,2013-06-18 15:25:00,
2013-06-18 08:30:00,89.8,26.0,29.60,SSW,211,2.0,2.0,10,0.00,,,0.00,Wunderground v.1.15,2013-06-18 15:30:00,
2013-06-18 08:35:00,90.1,26.2,29.60,SE,127,3.0,3.0,10,0.00,,,0.00,Wunderground v.1.15,2013-06-18 15:35:00,
2013-06-18 08:45:00,90.1,26.2,29.60,East,90,2.0,3.0,10,0.00,,,0.00,Wunderground v.1.15,2013-06-18 15:45:00,
2013-06-18 08:50:00,90.5,26.5,29.60,SSW,203,3.0,4.0,10,0.00,,,0.00,Wunderground v.1.15,2013-06-18 15:50:00,
2013-06-18 08:55:00,91.1,26.9,29.59,SE,138,3.0,4.0,10,0.00,,,0.00,Wunderground v.1.15,2013-06-18 15:55:00,
2013-06-18 09:00:00,91.9,27.5,29.60,South,186,3.0,5.0,10,0.00,,,0.00,Wunderground v.1.15,2013-06-18 16:00:00,
2013-06-18 09:10:00,91.9,27.5,29.59,SSW,203,4.0,6.0,10,0.00,,,0.00,Wunderground v.1.15,2013-06-18 16:10:00,
2013-06-18 09:15:00,91.0,26.9,29.59,SSE,149,4.0,6.0,10,0.00,,,0.00,Wunderground v.1.15,2013-06-18 16:15:00,
2013-06-18 09:20:00,91.3,27.1,29.59,WSW,252,4.0,4.0,10,0.00,,,0.00,Wunderground v.1.15,2013-06-18 16:20:00,
2013-06-18 09:25:00,91.4,27.2,29.59,SSW,205,3.0,5.0,10,0.00,,,0.00,Wunderground v.1.15,2013-06-18 16:25:00,
2013-06-18 09:30:00,91.6,27.3,29.59,SE,141,3.0,6.0,10,0.00,,,0.00,Wunderground v.1.15,2013-06-18 16:30:00,
2013-06-18 09:40:00,91.7,24.8,29.58,SSW,193,3.0,3.0,9,0.00,,,0.00,Wunderground v.1.15,2013-06-18 16:40:00,
2013-06-18 09:45:00,92.6,25.5,29.58,South,174,4.0,4.0,9,0.00,,,0.00,Wunderground v.1.15,2013-06-18 16:45:00,
2013-06-18 09:50:00,93.5,26.2,29.58,SW,219,3.0,3.0,9,0.00,,,0.00,Wunderground v.1.15,2013-06-18 16:50:00,
2013-06-18 09:55:00,94.3,26.8,29.58,ESE,107,2.0,8.0,9,0.00,,,0.00,Wunderground v.1.15,2013-06-18 16:55:00,
2013-06-18 10:05:00,93.7,26.3,29.58,SSW,202,4.0,5.0,9,0.00,,,0.00,Wunderground v.1.15,2013-06-18 17:05:00,
2013-06-18 10:10:00,94.5,26.9,29.58,SSE,163,2.0,2.0,9,0.00,,,0.00,Wunderground v.1.15,2013-06-18 17:10:00,
2013-06-18 10:15:00,94.7,27.1,29.58,WSW,255,2.0,2.0,9,0.00,,,0.00,Wunderground v.1.15,2013-06-18 17:15:00,
2013-06-18 10:25:00,94.7,27.1,29.58,SE,138,5.0,7.0,9,0.00,,,0.00,Wunderground v.1.15,2013-06-18 17:25:00,
2013-06-18 10:30:00,93.8,26.4,29.58,SW,222,6.0,6.0,9,0.00,,,0.00,Wunderground v.1.15,2013-06-18 17:30:00,
2013-06-18 10:35:00,94.2,23.9,29.58,SE,127,7.0,7.0,8,0.00,,,0.00,Wunderground v.1.15,2013-06-18 17:35:00,
2013-06-18 10:40:00,94.4,24.0,29.58,SW,226,7.0,12.0,8,0.00,,,0.00,Wunderground v.1.15,2013-06-18 17:40:00,
2013-06-18 10:45:00,94.6,24.2,29.58,SW,224,6.0,12.0,8,0.00,,,0.00,Wunderground v.1.15,2013-06-18 17:45:00,
2013-06-18 10:55:00,95.2,24.6,29.58,SSW,193,6.0,6.0,8,0.00,,,0.00,Wunderground v.1.15,2013-06-18 17:55:00,
2013-06-18 11:05:00,95.9,25.1,29.58,ENE,72,6.0,6.0,8,0.00,,,0.00,Wunderground v.1.15,2013-06-18 18:05:00,
2013-06-18 11:10:00,96.4,25.5,29.58,SE,128,6.0,7.0,8,0.00,,,0.00,Wunderground v.1.15,2013-06-18 18:10:00,
2013-06-18 11:20:00,96.1,25.3,29.58,SSE,167,7.0,7.0,8,0.00,,,0.00,Wunderground v.1.15,2013-06-18 18:20:00,
2013-06-18 11:25:00,96.5,25.6,29.58,SSW,212,6.0,7.0,8,0.00,,,0.00,Wunderground v.1.15,2013-06-18 18:25:00,
2013-06-18 11:30:00,97.4,26.2,29.57,SSW,198,4.0,9.0,8,0.00,,,0.00,Wunderground v.1.15,2013-06-18 18:30:00,
2013-06-18 11:40:00,97.6,23.2,29.57,South,170,7.0,10.0,7,0.00,,,0.00,Wunderground v.1.15,2013-06-18 18:40:00,
2013-06-18 11:45:00,96.8,25.8,29.57,SSE,160,7.0,10.0,8,0.00,,,0.00,Wunderground v.1.15,2013-06-18 18:45:00,
2013-06-18 11:50:00,96.9,22.7,29.57,SSW,208,6.0,11.0,7,0.00,,,0.00,Wunderground v.1.15,2013-06-18 18:50:00,
2013-06-18 11:55:00,97.3,23.0,29.57,SE,131,6.0,11.0,7,0.00,,,0.00,Wunderground v.1.15,2013-06-18 18:55:00,
2013-06-18 12:00:00,96.6,25.7,29.57,SSW,193,7.0,7.0,8,0.00,,,0.00,Wunderground v.1.15,2013-06-18 19:00:00,
2013-06-18 12:10:00,98.3,23.7,29.57,South,180,6.0,11.0,7,0.00,,,0.00,Wunderground v.1.15,2013-06-18 19:10:00,
2013-06-18 12:15:00,98.6,23.9,29.56,SE,127,6.0,11.0,7,0.00,,,0.00,Wunderground v.1.15,2013-06-18 19:15:00,
2013-06-18 12:20:00,98.5,23.8,29.56,ESE,118,7.0,15.0,7,0.00,,,0.00,Wunderground v.1.15,2013-06-18 19:20:00,
2013-06-18 12:25:00,97.3,23.0,29.56,South,174,9.0,15.0,7,0.00,,,0.00,Wunderground v.1.15,2013-06-18 19:25:00,
2013-06-18 12:35:00,97.7,23.3,29.55,NE,39,6.0,9.0,7,0.00,,,0.00,Wunderground v.1.15,2013-06-18 19:35:00,
2013-06-18 12:40:00,97.5,23.1,29.55,SSE,167,8.0,12.0,7,0.00,,,0.00,Wunderground v.1.15,2013-06-18 19:40:00,
2013-06-18 12:45:00,98.1,23.5,29.55,SW,221,10.0,12.0,7,0.00,,,0.00,Wunderground v.1.15,2013-06-18 19:45:00,
2013-06-18 12:50:00,97.3,23.0,29.55,ESE,106,10.0,10.0,7,0.00,,,0.00,Wunderground v.1.15,2013-06-18 19:50:00,
2013-06-18 12:55:00,98.3,23.7,29.54,South,174,7.0,10.0,7,0.00,,,0.00,Wunderground v.1.15,2013-06-18 19:55:00,
2013-06-18 13:05:00,97.4,23.0,29.54,WSW,249,8.0,12.0,7,0.00,,,0.00,Wunderground v.1.15,2013-06-18 20:05:00,
2013-06-18 13:10:00,98.1,23.5,29.54,SW,233,5.0,5.0,7,0.00,,,0.00,Wunderground v.1.15,2013-06-18 20:10:00,
2013-06-18 13:15:00,98.9,20.5,29.54,SW,221,6.0,6.0,6,0.00,,,0.00,Wunderground v.1.15,2013-06-18 20:15:00,
2013-06-18 13:25:00,98.8,20.4,29.53,SSW,194,9.0,9.0,6,0.00,,,0.00,Wunderground v.1.15,2013-06-18 20:25:00,
2013-06-18 13:30:00,99.3,16.5,29.53,WNW,301,9.0,11.0,5,0.00,,,0.00,Wunderground v.1.15,2013-06-18 20:30:00,
2013-06-18 13:35:00,100.1,17.1,29.53,ESE,108,7.0,11.0,5,0.00,,,0.00,Wunderground v.1.15,2013-06-18 20:35:00,
2013-06-18 13:40:00,100.1,17.1,29.53,WSW,243,6.0,6.0,5,0.00,,,0.00,Wunderground v.1.15,2013-06-18 20:40:00,
2013-06-18 13:45:00,99.8,16.8,29.52,WSW,243,5.0,6.0,5,0.00,,,0.00,Wunderground v.1.15,2013-06-18 20:45:00,
2013-06-18 13:50:00,100.4,17.3,29.53,SSW,197,8.0,14.0,5,0.00,,,0.00,Wunderground v.1.15,2013-06-18 20:50:00,
2013-06-18 14:00:00,100.1,11.9,29.52,WSW,238,9.0,9.0,4,0.00,,,0.00,Wunderground v.1.15,2013-06-18 21:00:00,
2013-06-18 14:05:00,100.6,12.3,29.52,SE,132,4.0,9.0,4,0.00,,,0.00,Wunderground v.1.15,2013-06-18 21:05:00,
2013-06-18 14:10:00,101.9,13.2,29.52,South,174,3.0,14.0,4,0.00,,,0.00,Wunderground v.1.15,2013-06-18 21:10:00,
2013-06-18 14:15:00,101.5,12.9,29.52,SW,226,6.0,14.0,4,0.00,,,0.00,Wunderground v.1.15,2013-06-18 21:15:00,
2013-06-18 14:20:00,101.5,6.5,29.52,WSW,243,8.0,8.0,3,0.00,,,0.00,Wunderground v.1.15,2013-06-18 21:20:00,
2013-06-18 14:30:00,101.0,6.1,29.51,SW,214,9.0,10.0,3,0.00,,,0.00,Wunderground v.1.15,2013-06-18 21:30:00,
2013-06-18 14:35:00,100.9,6.1,29.51,SW,224,9.0,13.0,3,0.00,,,0.00,Wunderground v.1.15,2013-06-18 21:35:00,
2013-06-18 14:40:00,101.1,-2.5,29.51,SSW,195,10.0,14.0,2,0.00,,,0.00,Wunderground v.1.15,2013-06-18 21:40:00,
2013-06-18 14:45:00,100.8,-2.7,29.50,SW,226,10.0,14.0,2,0.00,,,0.00,Wunderground v.1.15,2013-06-18 21:45:00,
2013-06-18 14:50:00,100.6,-2.8,29.51,West,259,8.0,12.0,2,0.00,,,0.00,Wunderground v.1.15,2013-06-18 21:50:00,
2013-06-18 15:00:00,100.9,-16.7,29.50,NW,304,9.0,9.0,1,0.00,,,0.00,Wunderground v.1.15,2013-06-18 22:00:00,
2013-06-18 15:05:00,101.0,-16.7,29.50,WSW,254,8.0,9.0,1,0.00,,,0.00,Wunderground v.1.15,2013-06-18 22:05:00,
2013-06-18 15:15:00,101.3,-16.5,29.50,SW,232,7.0,7.0,1,0.00,,,0.00,Wunderground v.1.15,2013-06-18 22:15:00,
2013-06-18 15:20:00,100.6,-16.9,29.50,West,260,8.0,8.0,1,0.00,,,0.00,Wunderground v.1.15,2013-06-18 22:20:00,
2013-06-18 15:30:00,100.2,-17.2,29.50,SW,233,9.0,10.0,1,0.00,,,0.00,Wunderground v.1.15,2013-06-18 22:30:00,
2013-06-18 15:35:00,100.1,-17.2,29.49,WSW,242,10.0,11.0,1,0.00,,,0.00,Wunderground v.1.15,2013-06-18 22:35:00,
2013-06-18 15:40:00,99.8,-17.4,29.49,West,278,12.0,12.0,1,0.00,,,0.00,Wunderground v.1.15,2013-06-18 22:40:00,
2013-06-18 15:45:00,100.2,-17.2,29.49,SW,217,11.0,12.0,1,0.00,,,0.00,Wunderground v.1.15,2013-06-18 22:45:00,
2013-06-18 15:50:00,100.3,-17.1,29.49,SW,229,9.0,9.0,1,0.00,,,0.00,Wunderground v.1.15,2013-06-18 22:50:00,
2013-06-18 16:00:00,100.3,-3.0,29.49,West,272,8.0,12.0,2,0.00,,,0.00,Wunderground v.1.15,2013-06-18 23:00:00,
2013-06-18 16:05:00,99.7,-3.4,29.49,South,183,8.0,12.0,2,0.00,,,0.00,Wunderground v.1.15,2013-06-18 23:05:00,
2013-06-18 16:10:00,100.2,-3.1,29.48,WSW,253,7.0,13.0,2,0.00,,,0.00,Wunderground v.1.15,2013-06-18 23:10:00,
2013-06-18 16:15:00,99.8,-3.3,29.48,SSW,193,7.0,13.0,2,0.00,,,0.00,Wunderground v.1.15,2013-06-18 23:15:00,
2013-06-18 16:25:00,100.0,-3.2,29.48,WSW,257,7.0,9.0,2,0.00,,,0.00,Wunderground v.1.15,2013-06-18 23:25:00,
2013-06-18 16:30:00,99.8,-3.3,29.48,SSW,195,8.0,8.0,2,0.00,,,0.00,Wunderground v.1.15,2013-06-18 23:30:00,
2013-06-18 16:35:00,99.9,-17.3,29.48,West,275,9.0,9.0,1,0.00,,,0.00,Wunderground v.1.15,2013-06-18 23:35:00,
2013-06-18 16:40:00,99.8,-17.4,29.47,West,268,9.0,9.0,1,0.00,,,0.00,Wunderground v.1.15,2013-06-18 23:40:00,
2013-06-18 16:50:00,100.7,-16.9,29.47,SSW,205,5.0,6.0,1,0.00,,,0.00,Wunderground v.1.15,2013-06-18 23:50:00,
2013-06-18 16:55:00,101.0,-16.7,29.47,West,266,5.0,10.0,1,0.00,,,0.00,Wunderground v.1.15,2013-06-18 23:55:00,
2013-06-18 17:00:00,100.5,-17.0,29.47,WSW,250,7.0,9.0,1,0.00,,,0.00,Wunderground v.1.15,2013-06-19 00:00:00,
2013-06-18 17:05:00,99.8,-17.4,29.47,WNW,283,8.0,9.0,1,0.00,,,0.00,Wunderground v.1.15,2013-06-19 00:05:00,
2013-06-18 17:10:00,99.4,-17.6,29.46,SW,217,6.0,8.0,1,0.00,,,0.00,Wunderground v.1.15,2013-06-19 00:10:00,
2013-06-18 17:20:00,99.6,-17.5,29.47,WSW,246,9.0,15.0,1,0.00,,,0.00,Wunderground v.1.15,2013-06-19 00:20:00,
2013-06-18 17:25:00,99.0,-17.9,29.46,NNW,328,9.0,15.0,1,0.00,,,0.00,Wunderground v.1.15,2013-06-19 00:25:00,
2013-06-18 17:35:00,98.9,-17.9,29.46,West,263,8.0,9.0,1,0.00,,,0.00,Wunderground v.1.15,2013-06-19 00:35:00,
2013-06-18 17:40:00,98.8,-18.0,29.46,West,267,9.0,9.0,1,0.00,,,0.00,Wunderground v.1.15,2013-06-19 00:40:00,
2013-06-18 17:50:00,99.6,-17.5,29.46,West,266,3.0,3.0,1,0.00,,,0.00,Wunderground v.1.15,2013-06-19 00:50:00,
2013-06-18 17:55:00,99.4,-17.6,29.46,SW,219,5.0,5.0,1,0.00,,,0.00,Wunderground v.1.15,2013-06-19 00:55:00,
2013-06-18 18:00:00,99.6,-17.5,29.46,WSW,242,6.0,8.0,1,0.00,,,0.00,Wunderground v.1.15,2013-06-19 01:00:00,
2013-06-18 18:05:00,98.8,-18.0,29.46,West,273,7.0,8.0,1,0.00,,,0.00,Wunderground v.1.15,2013-06-19 01:05:00,
2013-06-18 18:10:00,98.5,-18.2,29.47,West,266,9.0,9.0,1,0.00,,,0.00,Wunderground v.1.15,2013-06-19 01:10:00,
2013-06-18 18:15:00,98.1,-18.4,29.47,WSW,257,8.0,9.0,1,0.00,,,0.00,Wunderground v.1.15,2013-06-19 01:15:00,
2013-06-18 18:25:00,97.1,-19.0,29.47,SW,233,8.0,9.0,1,0.00,,,0.00,Wunderground v.1.15,2013-06-19 01:25:00,
2013-06-18 18:30:00,96.7,-19.2,29.47,South,184,7.0,9.0,1,0.00,,,0.00,Wunderground v.1.15,2013-06-19 01:30:00,
2013-06-18 18:35:00,96.5,-19.3,29.47,NW,326,6.0,9.0,1,0.00,,,0.00,Wunderground v.1.15,2013-06-19 01:35:00,
2013-06-18 18:45:00,96.1,-19.6,29.47,West,260,6.0,6.0,1,0.00,,,0.00,Wunderground v.1.15,2013-06-19 01:45:00,
2013-06-18 18:50:00,95.9,-19.7,29.47,SW,226,6.0,6.0,1,0.00,,,0.00,Wunderground v.1.15,2013-06-19 01:50:00,
2013-06-18 18:55:00,95.9,-19.7,29.47,SW,217,8.0,8.0,1,0.00,,,0.00,Wunderground v.1.15,2013-06-19 01:55:00,
2013-06-18 19:00:00,95.6,-19.9,29.47,SW,228,7.0,7.0,1,0.00,,,0.00,Wunderground v.1.15,2013-06-19 02:00:00,
2013-06-18 19:05:00,95.4,-20.0,29.46,WSW,243,4.0,7.0,1,0.00,,,0.00,Wunderground v.1.15,2013-06-19 02:05:00,
2013-06-18 19:15:00,95.1,-20.2,29.46,WSW,239,6.0,9.0,1,0.00,,,0.00,Wunderground v.1.15,2013-06-19 02:15:00,
2013-06-18 19:25:00,95.0,-20.2,29.46,SW,236,7.0,10.0,1,0.00,,,0.00,Wunderground v.1.15,2013-06-19 02:25:00,
2013-06-18 19:30:00,94.7,-20.4,29.46,West,267,6.0,8.0,1,0.00,,,0.00,Wunderground v.1.15,2013-06-19 02:30:00,
2013-06-18 19:40:00,94.4,-20.6,29.46,West,262,6.0,9.0,1,0.00,,,0.00,Wunderground v.1.15,2013-06-19 02:40:00,
2013-06-18 19:45:00,94.2,-20.7,29.46,WNW,288,6.0,9.0,1,0.00,,,0.00,Wunderground v.1.15,2013-06-19 02:45:00,
2013-06-18 19:50:00,94.1,-20.8,29.46,West,280,6.0,7.0,1,0.00,,,0.00,Wunderground v.1.15,2013-06-19 02:50:00,
2013-06-18 19:55:00,94.0,-20.8,29.46,SW,228,6.0,7.0,1,0.00,,,0.00,Wunderground v.1.15,2013-06-19 02:55:00,
2013-06-18 20:00:00,93.4,-21.2,29.46,WSW,250,5.0,6.0,1,0.00,,,0.00,Wunderground v.1.15,2013-06-19 03:00:00,
2013-06-18 20:10:00,93.4,-21.2,29.46,WSW,245,6.0,6.0,1,0.00,,,0.00,Wunderground v.1.15,2013-06-19 03:10:00,
2013-06-18 20:20:00,93.5,-21.1,29.47,SW,224,6.0,7.0,1,0.00,,,0.00,Wunderground v.1.15,2013-06-19 03:20:00,
2013-06-18 20:25:00,93.4,-21.2,29.47,SW,233,6.0,13.0,1,0.00,,,0.00,Wunderground v.1.15,2013-06-19 03:25:00,
2013-06-18 20:30:00,93.3,-21.2,29.47,SW,231,6.0,8.0,1,0.00,,,0.00,Wunderground v.1.15,2013-06-19 03:30:00,
2013-06-18 20:35:00,93.2,-21.3,29.47,WSW,252,6.0,8.0,1,0.00,,,0.00,Wunderground v.1.15,2013-06-19 03:35:00,
2013-06-18 20:45:00,92.9,-21.5,29.47,WSW,252,5.0,8.0,1,0.00,,,0.00,Wunderground v.1.15,2013-06-19 03:45:00,
2013-06-18 20:50:00,92.8,-21.5,29.47,WSW,252,6.0,8.0,1,0.00,,,0.00,Wunderground v.1.15,2013-06-19 03:50:00,
2013-06-18 20:55:00,92.9,-21.5,29.47,West,273,6.0,8.0,1,0.00,,,0.00,Wunderground v.1.15,2013-06-19 03:55:00,
2013-06-18 21:05:00,92.5,-21.7,29.48,West,264,6.0,7.0,1,0.00,,,0.00,Wunderground v.1.15,2013-06-19 04:05:00,
2013-06-18 21:10:00,92.6,-21.7,29.48,WSW,250,5.0,10.0,1,0.00,,,0.00,Wunderground v.1.15,2013-06-19 04:10:00,
2013-06-18 21:15:00,92.5,-21.7,29.48,WNW,301,6.0,10.0,1,0.00,,,0.00,Wunderground v.1.15,2013-06-19 04:15:00,
2013-06-18 21:20:00,92.6,-21.7,29.48,West,259,6.0,7.0,1,0.00,,,0.00,Wunderground v.1.15,2013-06-19 04:20:00,
2013-06-18 21:25:00,92.5,-8.0,29.48,SW,236,6.0,9.0,2,0.00,,,0.00,Wunderground v.1.15,2013-06-19 04:25:00,
2013-06-18 21:30:00,92.2,-8.2,29.48,West,276,6.0,6.0,2,0.00,,,0.00,Wunderground v.1.15,2013-06-19 04:30:00,
2013-06-18 21:35:00,92.1,-8.2,29.49,SW,229,5.0,6.0,2,0.00,,,0.00,Wunderground v.1.15,2013-06-19 04:35:00,
2013-06-18 21:40:00,91.9,-8.4,29.49,WSW,248,6.0,9.0,2,0.00,,,0.00,Wunderground v.1.15,2013-06-19 04:40:00,
2013-06-18 21:45:00,91.9,-8.4,29.49,WSW,247,6.0,9.0,2,0.00,,,0.00,Wunderground v.1.15,2013-06-19 04:45:00,
2013-06-18 21:50:00,91.7,-8.5,29.49,WSW,255,6.0,6.0,2,0.00,,,0.00,Wunderground v.1.15,2013-06-19 04:50:00,
2013-06-18 22:00:00,91.5,-8.6,29.49,WSW,245,5.0,5.0,2,0.00,,,0.00,Wunderground v.1.15,2013-06-19 05:00:00,
2013-06-18 22:05:00,90.8,-9.1,29.50,West,278,3.0,5.0,2,0.00,,,0.00,Wunderground v.1.15,2013-06-19 05:05:00,
2013-06-18 22:10:00,90.5,-9.3,29.50,SSE,155,1.0,1.0,2,0.00,,,0.00,Wunderground v.1.15,2013-06-19 05:10:00,
2013-06-18 22:15:00,90.5,-9.3,29.50,SW,224,3.0,3.0,2,0.00,,,0.00,Wunderground v.1.15,2013-06-19 05:15:00,
2013-06-18 22:25:00,90.1,-9.5,29.50,South,173,3.0,3.0,2,0.00,,,0.00,Wunderground v.1.15,2013-06-19 05:25:00,
2013-06-18 22:30:00,88.8,-10.3,29.50,SW,219,2.0,2.0,2,0.00,,,0.00,Wunderground v.1.15,2013-06-19 05:30:00,
2013-06-18 22:35:00,87.4,-2.9,29.50,SSE,149,1.0,2.0,3,0.00,,,0.00,Wunderground v.1.15,2013-06-19 05:35:00,
2013-06-18 22:40:00,86.4,-3.6,29.50,WNW,285,0.0,0.0,3,0.00,,,0.00,Wunderground v.1.15,2013-06-19 05:40:00,
2013-06-18 22:45:00,85.6,-4.1,29.50,West,260,0.0,1.0,3,0.00,,,0.00,Wunderground v.1.15,2013-06-19 05:45:00,
2013-06-18 22:55:00,85.9,-3.9,29.50,SSW,209,1.0,2.0,3,0.00,,,0.00,Wunderground v.1.15,2013-06-19 05:55:00,
2013-06-18 23:00:00,85.8,-4.0,29.50,SW,231,1.0,1.0,3,0.00,,,0.00,Wunderground v.1.15,2013-06-19 06:00:00,
2013-06-18 23:05:00,85.1,-4.4,29.50,SW,232,0.0,1.0,3,0.00,,,0.00,Wunderground v.1.15,2013-06-19 06:05:00,
2013-06-18 23:10:00,84.8,1.5,29.50,West,262,1.0,1.0,4,0.00,,,0.00,Wunderground v.1.15,2013-06-19 06:10:00,
2013-06-18 23:15:00,85.1,-4.4,29.50,West,278,1.0,1.0,3,0.00,,,0.00,Wunderground v.1.15,2013-06-19 06:15:00,
2013-06-18 23:25:00,84.6,1.3,29.50,WNW,298,1.0,1.0,4,0.00,,,0.00,Wunderground v.1.15,2013-06-19 06:25:00,
2013-06-18 23:30:00,83.9,0.8,29.50,WNW,295,0.0,0.0,4,0.00,,,0.00,Wunderground v.1.15,2013-06-19 06:30:00,
2013-06-18 23:35:00,83.1,0.3,29.50,WNW,288,0.0,0.0,4,0.00,,,0.00,Wunderground v.1.15,2013-06-19 06:35:00,
2013-06-18 23:40:00,82.8,0.1,29.50,West,280,0.0,0.0,4,0.00,,,0.00,Wunderground v.1.15,2013-06-19 06:40:00,
2013-06-18 23:45:00,82.2,4.5,29.50,WNW,284,0.0,0.0,5,0.00,,,0.00,Wunderground v.1.15,2013-06-19 06:45:00,
2013-06-18 23:55:00,81.9,4.3,29.50,NNW,336,1.0,1.0,5,0.00,,,0.00,Wunderground v.1.15,2013-06-19 06:55:00,